TDRS 12

Last updated on Wed Sep 09 2026 00:02:53 GMT+0000 (Coordinated Universal Time)

1 39504U 14004A 26251.36569281 -.00000288 00000+0 00000+0 0 9993 2 39504 4.0645 20.3550 0006393 215.7377 202.0902 1.00271170 45115
UTC large
Height (km)
Speed (km/s)
/
Latitude / Longitude
Inclination (degrees)
Orbital Period (minutes)
Azimuth
Elevation
Range (km)
Doppler Factor

Next 0 passes for location: London (51.5072 / 0.1276)

No passes found over London.
TDRS 12